Punta Cana, Dominican Republic

6:38 AM AST on January 24, 2017 (GMT -0400)
Punta Cana International

Weather History for MDPC - December, 2012

Change the Weather History Date:

Tuesday, December 11, 2012

  Actual Average Record
Temperature  
Mean Temperature 81 °F -  
Max Temperature 85 °F 82 °F 86 °F (2001)
Min Temperature 77 °F 73 °F 67 °F (2014)
Cooling Degree Days 16    
Growing Degree Days 31 (Base 50)    
Moisture  
Dew Point 71 °F    
Average Humidity 74    
Maximum Humidity 83    
Minimum Humidity 62    
Precipitation  
Precipitation 0.00 in - - ()
Sea Level Pressure  
Sea Level Pressure 29.99 in    
Wind  
Wind Speed 11 mph ()    
Max Wind Speed 17 mph    
Max Gust Speed 29 mph    
Visibility 6.5 miles    
Events Rain    
Averages and records for this station are not official NWS values.
T = Trace of Precipitation, MM = Missing Value Source: Averaged Metar Reports

Daily Weather History Graph

Daily Weather History Graph

Search for Another Location

Airport or City:

Trip Planner

Search our weather history database for the weather conditions in past years. The results will help you decide how hot, cold, wet, or windy it might be!

Date:

Astronomy

Dec. 11, 2012 Rise Set
Actual Time 6:55 AM AST 5:58 PM AST
Civil Twilight 6:32 AM AST 6:21 PM AST
Nautical Twilight 6:04 AM AST 6:49 PM AST
Astronomical Twilight 5:38 AM AST 7:15 PM AST
Moon 4:54 AM AST (12/11) 4:28 PM AST (12/11)
Length of Visible Light 11h 49m
Length of Day
11h 02m
Waning Crescent, 4% of the Moon is Illuminated
Dec 11
Waning Crescent
Dec 13
New
Dec 20
First Quarter
Dec 28
Full
Jan 4
Last Quarter

Hourly Weather History & Observations

Time (AST) Temp. Heat Index Dew Point Humidity Pressure Visibility Wind Dir Wind Speed Gust Speed Precip Events Conditions
12:00 AM 78.8 °F - 69.8 °F 74% 30.01 in - North - - N/A   Partly Cloudy
1:00 AM 78.8 °F - 68.0 °F 69% 30.01 in 6.2 mi East 17.3 mph 28.8 mph N/A   Partly Cloudy
2:00 AM 78.8 °F - 68.0 °F 69% 29.98 in 6.2 mi East 17.3 mph 28.8 mph N/A   Partly Cloudy
3:00 AM 78.8 °F - 68.0 °F 69% 29.98 in 6.2 mi East 17.3 mph 28.8 mph N/A   Partly Cloudy
4:00 AM 78.8 °F - 71.6 °F 78% 29.95 in 6.2 mi ESE 6.9 mph - N/A   Partly Cloudy
5:00 AM 78.8 °F - 69.8 °F 74% 29.95 in 6.2 mi ESE 8.1 mph - N/A   Partly Cloudy
6:00 AM 78.8 °F - 69.8 °F 74% 29.98 in 6.2 mi ESE 6.9 mph - N/A   Partly Cloudy
7:00 AM 77.0 °F - 71.6 °F 83% 29.98 in 6.2 mi ESE 8.1 mph - N/A   Partly Cloudy
8:00 AM 78.8 °F - 71.6 °F 78% 30.01 in 6.2 mi ESE 11.5 mph - N/A   Partly Cloudy
9:00 AM 80.6 °F 85.4 °F 73.4 °F 79% 30.01 in 6.2 mi ESE 5.8 mph - N/A   Partly Cloudy
10:00 AM 82.4 °F 88.2 °F 73.4 °F 74% 30.04 in 6.2 mi ESE 11.5 mph - N/A   Partly Cloudy
11:00 AM 82.4 °F 88.2 °F 73.4 °F 74% 30.04 in 6.2 mi East 11.5 mph - N/A   Partly Cloudy
12:00 PM 84.2 °F 92.3 °F 75.2 °F 74% 30.04 in 6.2 mi ESE 11.5 mph - N/A   Partly Cloudy
1:00 PM 82.4 °F 88.2 °F 73.4 °F 74% 30.01 in 5.0 mi ESE 11.5 mph - N/A Rain Rain
2:00 PM 84.2 °F 89.6 °F 71.6 °F 66% 29.98 in 6.2 mi ESE 12.7 mph - N/A   Partly Cloudy
3:00 PM 82.4 °F 89.5 °F 75.2 °F 79% 29.98 in 6.2 mi East 12.7 mph - N/A   Partly Cloudy
4:00 PM 82.4 °F 88.2 °F 73.4 °F 74% 29.95 in 6.2 mi ESE 11.5 mph - N/A   Scattered Clouds
5:00 PM 80.6 °F 84.6 °F 71.6 °F 74% 29.95 in 6.2 mi ESE 11.5 mph - N/A   Partly Cloudy
6:00 PM 80.6 °F 84.6 °F 71.6 °F 74% 29.98 in 6.2 mi ESE 13.8 mph - N/A   Partly Cloudy
7:00 PM 78.8 °F - 71.6 °F 78% 29.98 in 6.2 mi ESE 13.8 mph - N/A   Partly Cloudy
8:00 PM 79 °F - 69 °F 65% 29.99 in 10 mi ESE 15.7 mph - -   Scattered Clouds
8:00 PM 78.8 °F - 69.8 °F 74% 29.98 in 6.2 mi ESE 16.1 mph - N/A   Partly Cloudy
9:00 PM 80.6 °F 84.6 °F 71.6 °F 74% 30.01 in 6.2 mi East 12.7 mph - N/A   Partly Cloudy
10:00 PM 78.8 °F - 69.8 °F 74% 30.01 in 6.2 mi East 13.8 mph - N/A   Partly Cloudy
11:00 PM 79 °F - 68 °F 62% 30.03 in 10 mi East 13.4 mph - -   Scattered Clouds
11:00 PM 78.8 °F - 69.8 °F 74% 30.01 in 6.2 mi East 12.7 mph - N/A   Partly Cloudy